RH
76 64 38 28 24 20 19 16 17 18 40 87 83 75 90 67 63 56 41 30 30 34 33 33 36 42 51 50 47 47 49 54 58 68 72 77 86 96 100 98 95 92 69
52 30 25 21 20 18 17 17 20 25 46 68 84 83 84 72 76 64 52 40 37 37 38 38 37 40 44 51 59 65 68 72 74 82 83 92 98 83 76 71 69 63 80
28 24 21 20 18 17 17 18 20 24 41 51 57 61 57 71 76 74 67 62 67 71 68 64 53 50 43 40 40 41 41 46 48 45 43 46 46 50 58 64 66 64 66
26 23 22 21 20 18 20 17 16 18 20 24 27 35 46 54 49 33 27 26 31 38 40 50 58 54 56 66 67 68 68 70 69 70 72 68 65 68 68 78 85 96 100
25 26 26 24 22 22 21 18 18 18 17 17 17 17 17 16 16 17 19 20 18 18 19 20 21 23 26 28 28 28 28 30 28 34 53 70 73 74 61 65 70 71 75
26 29 26 24 26 26 22 19 20 18 20 21 21 19 19 18 17 16 15 15 16 16 16 17 19 20 20 21 22 22 26 27 26 26 29 38 49 58 66 76 70 66 81
28 31 27 28 31 28 26 24 23 23 23 24 24 25 25 22 20 18 17 16 15 16 16 16 16 16 17 16 17 21 23 25 27 37 53 72 94 84 83 73 76 63 65
30 31 30 29 27 28 28 25 28 28 29 29 31 30 28 26 24 23 21 19 17 16 16 16 18 16 16 15 19 24 26 32 43 63 81 89 98 97 90 73 60 53 50
35 35 37 35 37 34 33 33 33 34 33 30 28 28 26 25 27 28 26 23 20 18 18 19 19 18 17 20 26 31 36 55 74 97 100 94 79 79 83 61 49 40 29
45 44 43 39 39 38 38 37 35 32 30 30 29 27 25 25 25 24 25 25 23 22 21 20 20 20 23 32 42 57 75 86 93 80 74 90 78 59 55 48 37 28 25
48 43 38 39 38 42 44 39 39 30 28 29 29 28 26 26 27 27 26 26 25 23 21 22 22 26 42 57 72 84 90 80 80 93 75 61 58 53 44 32 27 28 29
41 37 42 44 43 43 40 36 32 32 31 29 28 27 27 28 28 27 26 25 23 22 23 26 29 41 69 80 80 90 87 83 75 60 59 57 48 32 26 25 26 26 24
39 41 47 48 48 40 36 34 34 34 30 29 29 29 28 26 25 25 25 24 24 24 27 36 54 75 80 86 96 90 75 61 57 59 53 40 30 26 26 26 24 21 17
43 46 45 44 42 37 36 39 38 33 30 29 30 30 27 25 25 25 25 23 26 30 41 62 84 90 86 79 72 59 59 63 57 46 35 31 27 24 22 20 15 11 7
43 44 45 43 42 42 41 38 32 29 31 32 32 30 27 25 25 26 25 28 31 47 71 79 83 78 65 57 59 62 61 47 40 39 33 28 23 20 17 12 7 6 5
46 49 46 44 41 37 37 32 30 33 33 33 33 28 24 25 26 26 29 44 56 62 75 72 62 57 60 61 59 42 40 44 36 31 25 22 18 15 10 6 6 6 5
35 34 34 34 35 33 29 33 34 35 37 34 27 25 27 26 29 37 48 54 67 73 66 63 58 59 59 44 41 44 42 36 29 23 24 19 12 7 6 5 5 5 4
35 34 34 31 30 33 38 39 40 36 32 25 26 28 28 35 47 52 54 62 58 62 66 62 58 47 40 43 44 40 35 29 28 25 16 9 6 6 5 4 5 4 4
32 31 34 39 42 43 42 38 33 26 24 27 30 38 47 57 53 55 60 65 70 62 63 50 41 42 47 43 39 36 34 29 24 15 8 7 6 5 4 4 4 4 3
47 48 48 46 44 38 32 26 24 27 33 43 48 57 53 49 51 58 58 57 60 54 45 42 45 47 43 47 42 31 21 18 10 8 8 6 5 5 4 4 3 3 3
44 40 36 31 28 26 26 29 40 50 53 57 54 50 52 54 56 56 52 58 48 46 47 48 46 49 48 44 35 24 14 7 7 7 6 5 5 4 4 3 3 3 3
28 28 28 27 28 32 48 47 56 59 54 46 54 59 53 50 48 51 49 45 47 50 51 52 55 49 41 33 21 10 8 7 5 4 4 4 4 4 4 4 3 3 3
27 29 33 42 51 58 62 66 68 61 61 59 53 52 53 54 53 46 49 52 52 57 61 52 45 40 31 18 9 7 7 5 4 4 4 3 4 4 3 3 3 3 3
45 57 63 64 63 78 69 58 62 56 47 46 51 55 58 50 50 53 56 58 64 60 50 44 38 25 15 8 7 6 5 4 5 4 4 4 4 4 3 3 3 3 3
71 70 78 81 71 66 53 47 44 46 53 56 56 53 52 54 59 66 66 66 58 48 41 30 18 9 7 7 6 5 4 4 4 4 4 4 4 3 3 3 3 3 4
89 79 77 61 59 53 45 49 64 63 58 51 50 56 57 65 70 71 67 57 49 44 31 16 8 7 7 5 5 5 4 4 4 4 4 4 3 3 3 3 3 4 5
Wind_Speed
33 35 34 32 34 36 38 42 41 41 37 35 33 36 38 39 39 40 38 37 37 37 40 42 42 43 44 46 47 48 49 51 52 54 57 61 65 68 71 72 74 75 77
33 33 32 30 34 37 41 38 35 34 36 35 34 36 37 38 39 39 37 38 37 39 40 42 43 45 47 49 51 53 55 58 60 60 62 65 71 73 76 76 76 76 78
34 33 33 27 31 37 34 30 28 27 30 35 36 36 37 39 37 38 40 42 41 40 41 42 44 46 48 49 52 54 57 61 65 67 66 68 70 72 76 79 82 84 86
35 34 29 28 30 30 25 26 27 29 29 29 29 31 35 38 39 39 40 41 42 44 46 46 46 47 48 51 54 57 60 62 66 70 73 74 74 76 75 80 85 88 91
35 33 32 31 33 29 28 26 26 27 28 27 28 30 33 35 38 39 41 43 46 48 47 49 51 53 54 55 56 59 61 63 66 70 75 79 82 86 85 81 86 90 94
37 34 33 31 33 30 29 29 29 30 31 32 33 35 37 39 41 43 45 46 49 51 52 54 55 56 59 62 63 66 67 70 73 75 78 79 83 87 88 87 88 88 94
40 37 36 34 34 32 31 32 33 34 35 36 38 40 42 45 48 50 52 53 55 58 59 60 61 63 65 68 70 71 74 76 81 82 83 87 89 89 92 93 93 95 98
42 38 37 37 38 36 35 36 36 36 38 41 43 46 48 50 53 56 59 61 62 63 65 67 68 69 70 71 73 75 79 83 85 86 87 87 92 97 100 102 104 101 103
41 38 37 37 37 36 36 37 38 39 43 46 48 50 54 57 60 63 65 67 68 70 72 73 75 75 76 76 78 81 85 86 87 88 90 95 97 100 107 111 112 111 102
41 38 36 37 35 35 37 38 40 44 48 52 54 57 60 62 66 69 71 73 75 77 78 79 79 80 80 80 83 86 87 87 90 92 94 99 104 108 110 110 110 114 117
38 38 37 37 36 37 39 42 47 49 52 56 60 63 67 69 72 74 78 79 80 82 83 83 83 82 83 86 88 87 89 91 93 98 101 105 108 107 109 112 114 119 126
38 39 40 40 40 42 44 48 52 55 59 63 66 69 72 75 77 81 83 83 84 85 84 84 84 85 88 89 90 91 94 96 99 104 105 105 107 111 113 117 122 128 132
42 43 45 45 47 48 50 54 58 61 65 68 71 74 77 80 82 85 86 87 88 86 85 85 86 88 90 92 93 95 97 103 105 106 105 109 113 115 120 126 130 133 135
47 49 51 51 53 54 56 60 65 68 71 73 75 79 82 84 86 88 89 89 87 86 87 88 89 92 95 95 97 101 104 105 104 108 112 115 119 124 129 132 134 135 132
50 53 55 56 57 60 64 67 71 73 74 77 80 83 86 88 89 89 88 87 86 88 89 91 92 94 97 101 103 103 101 104 108 113 118 122 126 131 134 136 133 126 116
56 57 59 61 65 67 70 74 75 75 79 82 85 89 90 89 89 88 86 87 88 89 91 91 93 99 102 103 101 102 107 112 116 119 124 128 131 136 135 128 118 114 111
58 60 63 66 70 73 75 76 79 81 83 86 90 90 90 89 85 86 86 87 88 89 91 96 99 99 99 101 105 111 115 120 124 127 131 135 137 129 118 110 109 107 106
64 67 69 71 73 75 78 81 82 84 88 90 90 89 85 84 85 86 85 85 89 92 97 97 96 97 102 107 113 118 122 126 131 135 137 133 121 115 110 105 100 97 95
67 69 70 73 76 80 81 83 87 89 90 87 82 81 82 83 83 83 86 90 93 95 95 95 99 103 109 115 121 125 129 132 136 138 128 119 114 108 102 95 88 85 84
69 72 76 79 81 82 84 88 89 86 79 79 79 80 81 81 84 87 90 92 93 93 96 100 106 111 116 124 128 132 133 134 130 122 117 112 107 100 93 86 81 77 75
75 77 79 81 84 85 85 79 74 75 76 77 77 78 80 84 87 89 90 91 92 97 103 108 113 119 124 129 134 136 135 127 116 110 104 101 95 90 86 80 75 70 67
77 79 82 83 79 74 71 72 74 74 75 75 76 80 84 87 87 88 89 93 98 104 110 115 120 125 129 135 136 133 124 117 108 102 96 90 87 82 77 72 69 65 60
79 74 71 67 66 68 69 69 69 72 74 77 81 84 83 81 82 87 93 99 106 112 118 122 125 130 135 135 129 120 111 105 100 95 90 85 79 74 71 66 61 57 53
59 61 63 64 63 65 68 70 71 74 77 80 80 77 78 83 88 95 101 107 113 118 123 127 132 134 133 126 117 106 101 96 93 91 84 78 73 68 64 60 55 51 45
55 55 58 62 64 66 69 70 73 76 73 69 73 78 83 89 96 102 109 115 120 124 129 133 133 127 119 111 102 98 92 88 85 80 76 71 66 60 55 52 47 42 37
55 59 62 65 67 68 70 73 66 64 68 72 78 84 90 96 102 108 114 120 126 131 135 133 125 116 108 99 94 90 88 83 80 74 69 64 60 54 49 44 39 34 31
Wind_Direction
240 245 248 250 254 260 265 267 271 280 275 271 270 275 281 285 286 289 291 291 291 295 296 294 292 289 285 282 281 280 280 279 277 275 276 277 278 279 280 280 281 281 282
235 239 241 245 252 261 263 265 274 281 273 269 277 278 282 286 288 289 293 291 292 296 301 300 296 292 289 288 286 284 284 283 283 281 280 279 280 281 281 281 281 281 280
227 229 236 240 249 259 260 264 273 281 280 280 281 280 280 289 294 293 296 294 294 297 297 296 296 296 293 291 290 287 287 286 285 284 281 280 280 280 283 284 284 284 284
223 228 233 240 247 250 260 265 273 276 282 286 290 288 287 288 292 295 295 295 295 293 292 291 289 289 289 290 290 288 288 287 287 288 288 286 282 280 279 281 282 284 285
223 229 236 244 250 259 262 265 273 279 280 285 292 293 296 296 296 297 296 295 296 296 294 292 292 291 292 293 294 292 291 289 289 288 287 287 287 286 285 281 281 282 283
227 233 238 247 256 259 266 268 279 282 291 298 302 304 305 305 304 301 299 300 299 299 297 296 294 293 294 293 293 293 293 294 293 293 290 289 289 288 287 286 285 285 283
229 235 239 250 255 261 268 274 280 286 292 296 300 302 305 306 307 306 306 304 303 301 300 300 299 297 296 296 296 295 296 296 296 295 293 292 291 290 289 286 285 284 284
231 236 243 252 256 265 272 276 284 290 295 299 301 303 304 305 305 306 305 305 304 303 302 302 300 300 300 299 298 297 297 297 297 294 294 293 291 290 290 290 288 285 285
233 239 245 255 262 268 275 280 287 293 296 297 301 304 305 304 303 303 304 305 303 303 303 302 301 301 301 299 299 299 298 297 296 293 292 292 293 293 291 290 290 290 287
234 243 250 257 264 270 277 282 288 294 297 299 302 303 303 304 305 304 304 304 304 303 303 302 301 302 300 299 299 299 298 296 295 294 295 294 293 292 292 292 292 292 293
238 242 251 259 266 272 278 284 289 294 298 300 300 301 304 305 304 305 306 305 304 304 303 302 301 301 300 300 300 297 296 296 296 295 295 295 295 294 293 292 293 294 294
240 247 254 261 269 275 281 284 289 292 297 299 300 301 303 304 305 306 305 304 304 303 302 301 301 300 299 298 298 298 297 296 297 296 296 296 294 294 294 294 294 294 295
243 252 258 264 270 275 279 284 287 292 297 299 300 301 303 304 305 304 304 303 303 302 301 300 300 300 299 299 298 298 298 298 298 297 296 296 296 295 295 296 296 296 298
245 251 258 264 269 274 280 285 290 293 296 298 300 301 302 303 303 302 302 301 301 300 300 300 300 299 299 299 299 299 299 298 298 298 299 299 298 297 298 298 300 302 302
251 256 261 267 273 279 283 287 290 292 295 297 298 300 301 301 301 301 300 300 300 300 300 300 299 299 299 300 300 300 300 299 300 300 301 300 300 300 302 304 304 304 302
256 262 267 272 277 281 284 287 290 293 295 297 298 299 300 299 299 299 299 300 300 300 300 299 299 300 301 301 301 301 302 302 302 302 303 303 304 306 306 306 306 305 304
263 268 273 276 279 282 285 288 290 293 295 295 297 298 297 298 298 299 300 300 300 300 299 300 301 302 302 303 304 304 304 305 306 305 307 308 308 307 306 308 307 306 304
266 270 273 277 281 283 286 289 291 292 294 296 295 295 297 297 299 300 300 300 300 301 301 302 302 303 304 305 305 306 308 308 308 309 309 309 309 308 308 308 307 305 304
270 274 277 280 281 283 286 289 291 293 293 293 293 295 297 297 298 298 300 301 301 302 302 302 303 305 306 307 308 309 308 309 309 310 311 310 309 309 308 308 307 306 304
272 275 277 279 282 284 287 289 291 292 292 292 295 296 297 297 298 300 301 301 302 302 302 304 306 307 309 310 310 309 309 310 311 312 311 310 310 311 310 309 308 308 307
273 275 279 282 284 286 288 288 287 289 292 294 296 297 299 301 301 300 301 301 302 304 305 306 309 310 310 310 309 310 312 313 313 311 310 311 312 311 311 310 310 309 309
277 279 281 284 284 284 286 286 290 292 294 296 297 300 301 301 300 300 301 303 305 306 307 310 310 310 310 309 311 313 314 313 313 312 313 313 312 312 311 311 311 311 311
278 280 280 281 282 284 288 291 293 295 296 298 299 301 301 301 301 302 304 306 307 309 310 310 310 310 310 312 314 315 313 313 314 314 315 315 314 313 313 313 312 312 312
274 276 279 282 285 289 291 293 294 296 297 298 299 299 301 302 304 306 307 308 309 310 310 310 310 310 312 313 315 314 313 315 316 316 317 316 315 315 315 315 315 315 315
277 280 284 286 288 291 293 294 296 297 298 298 300 300 302 305 306 308 309 309 310 310 310 310 312 313 313 314 315 314 314 317 316 316 316 316 317 317 317 317 316 315 316
280 282 285 289 291 293 294 297 296 296 298 299 301 303 306 306 308 309 309 310 311 311 311 312 313 315 315 316 317 317 318 319 318 317 318 319 318 320 321 320 319 318 319